{"data":{"norad_id":54000,"epoch":"2026-05-25T05:16:19.513920Z","epoch_age_seconds":56312,"freshness":"FRESH","line1":"1 54000U 22125AN  26145.21967030 -.00013986  00000+0 -86076-3 0  9995","line2":"2 54000  53.2134 220.7507 0001468  76.5621 283.5535 15.08906912201159","mean_motion":15.08906912,"eccentricity":0.0001468,"inclination_deg":53.2134,"raan_deg":220.7507,"arg_perigee_deg":76.5621,"mean_anomaly_deg":283.5535,"bstar":-0.00086076,"rev_number":20115,"period_min":95.433322529574,"perigee_km":538.52335848843,"apogee_km":540.55438812483,"semimajor_km":6917.6758733066,"source":"CELESTRAK","updated_at":"2026-05-25T13:38:17.624004Z"}}